Simultaneous Nadir Overpasses (SNOs) Predictions

Prediction of SNOs between LANDSAT-8 and METOP-B Satellite Orbit:

Table of predicted SNOs for the next 14.0 days since TLE Epoch: 2/17/2024
Index Date (LANDSAT-8) Time (LANDSAT-8) Lat,Lon (LANDSAT-8) SZA (LANDSAT-8 ) Date (METOP-B) Time (METOP-B) Lat,Lon (METOP-B) SZA (METOP-B ) Distance(km) Time Diff (sec)
1 02/18/2024 12:46:33 81.29, 30.71 94.84 02/18/2024 12:46:19 81.29, 30.75 94.84 0.75 14
2 02/18/2024 13:35:59 -81.31,-161.37 85.14 02/18/2024 13:36:59 -81.30,-161.48 85.13 1.81 60
3 02/21/2024 08:20:47 81.30, 97.36 93.87 02/21/2024 08:20:44 81.30, 97.43 93.88 1.27 3
4 02/21/2024 09:10:14 -81.30, -95.09 86.16 02/21/2024 09:11:25 -81.30, -95.16 86.13 1.33 71
5 02/24/2024 03:05:35 -81.29, -4.10 87.17 02/24/2024 03:04:31 -81.28, -4.24 87.21 2.42 64
6 02/24/2024 03:55:01 81.29, 163.61 92.83 02/24/2024 03:55:10 81.30, 163.63 92.84 0.52 9
7 02/26/2024 22:39:47 -81.30, 62.54 88.18 02/26/2024 22:38:55 -81.30, 62.65 88.19 1.88 52
8 02/26/2024 23:29:13 81.30,-129.76 91.83 02/26/2024 23:29:35 81.30,-129.88 91.82 2.09 22
9 02/29/2024 18:13:58 -81.29, 128.80 89.25 02/29/2024 18:13:20 -81.29, 128.67 89.27 2.09 38



Historial Predications of SNOs between LANDSAT-8 and METOP-B
